STARLINK-32400, 61669

Orbit data source: Space-Track

STARLINK-32400, 61669 is a payload satellite owned by SpaceX/Seattle (US) in LEO that was launched on Sat, 26 Oct 2024 UTC via an FALCON 9 launch vehicle from the Air Force Eastern Test Range (AFETR). Payloads include a variety of satellites, spacecraft, and rockets equipped with specific instruments for various scientific and technological missions. These include communications satellites like Starlink; space stations such as the ISS; scientific satellites like the Hubble; Earth observation satellites from companies like Planet Labs, Umbra, and HawkEye 360; GPS; miniature CubeSats for education and research; and military/defense satellites.

Loading next visibility...
STARLINK-32400 details
Identifier
61669, 2024-193J
Orbit
LEO
Last TLE update15 hours ago
Origin
Flag of USSpaceX/Seattle (US)
ManufacturerSpaceX/Seattle
MissionOperational spacecraft
Bus & MotorSTARLINK V2M, Unknown motor
Mass730 kg wet, ~700 kg dry
Launch date (UTC)
2024-10-26 (2 months ago)
Launch vehicle
FALCON 9
Launch site
Air Force Eastern Test Range (AFETR)
Object type
Payload
Rocket body
Debris
Shape & HBRUnknown
Radar Cross SectionLarge (>1 m²)

Expand to show TLE details & history

TLE from 15 hours ago
0 STARLINK-32400
1 61669U 24193J   24361.23919065 -.00000167  00000-0  57984-5 0  9991
2 61669  53.1622 328.5702 0001155  99.5831 260.5304 15.39607769  9386
Epoch: 2024-12-26T05:44Z
Definitive object data (Epoch: 2024-12-26T05:44:26.072Z)
Latitude-0.00004°
Longitude147.2401°
Altitude448.302 km
Speed7.644 km/s
True Right ascension21h 54m 16s
True Declination0° 00' 00"
Sunlit
Object was in daylight at TLE epoch
Visualization TLE readout
Latitude-30.37084°
Longitude-9.81443°
Altitude456.916 km
Speed7.638 km/s
Apparent Right ascension09h 55m 41s
Apparent Declination-37° 28' 49"
Sunlit
Object is in daylight
Visualization observer readout
Local Sidereal Time20:05:24
Azimuth267.611° W
Elevation-68.431°
Doppler factor1
Orbital elements
Apogee altitude448.314 km
Perigee altitude446.737 km
Semi-major axis6,825.662 km
Eccentricity0.0001155
Inclination53.1622°
RAAN328.5702°
Arg. of periapsis99.5831°
True anomaly260.51735°
Mean anomaly260.5304°
Eccentric anomaly260.52387°
Mean motion3.84881 °/min
BSTAR0.0000057984
Orbital period93.54 mins
Loading maneuver chart data...
Loading historical data...
Loading historical data...
Loading historical data...
Loading historical data...
Loading historical data...
Loading historical data...
Loading historical data...

STARLINK-32400 Visibility forecast

Observer location: undefined°, undefined

Span
Click to sort rows by Start time (UTC) header in descending order
Start Az.
Max El. time (UTC)
Max El. Az.
Max El.
End time (UTC)
End Az.
6 mins2024-12-27 00:36:32.236Z220.31° SW2024-12-27 00:39:32.236Z138.818° SSE43.207°2024-12-27 00:42:32.236Z55.051° ENE
4 mins2024-12-27 07:10:32.236Z331.101° NNW2024-12-27 07:12:32.236Z69.954° E37.21°2024-12-27 07:14:32.236Z111.115° ESE
|